Location: Newark
(12.4436°N, 0.6167°W)
Time: 06:29:49
(UTC+00:00)

deb Explorer IX - Pass Details

Date: 14 December 2019
Orbit: 548 x 1101 km, 38.8° (Epoch: 27 January)

Event Time Altitude Azimuth Distance (km) Brightness Sun altitude
Rises 11:13:00 0° 209° (SSW) 2,700 ? 52.8°
Reaches altitude 10° 11:15:25 10° 197° (SSW) 1,827 ? 52.9°
Maximum altitude 11:18:59 28° 137° (SE) 1,095 ? 53.2°
Drops below altitude 10° 11:22:51 10° 77° (ENE) 1,976 ? 53.4°
Sets 11:25:33 0° 66° (ENE) 2,966 ? 53.5°
